Epoch 2016 Feb. 22.0 TT = JDT 2457440.5 T 2016 Feb. 25.86439 TT MPCW q 2.1766394 (2000.0) P Q n 0.08756001 Peri. 352.47032 -0.82602558 +0.53079079 a 5.0226415 Node 221.46606 -0.50105225 -0.84556826 e 0.5666345 Incl. 16.63702 -0.25812474 -0.05723160 P 11.26 From 43 observations 2016 Jan. 14-June 7, mean residual 0".4.
m1 = 15.5 + 5 logΔ + 10.0 log r